COSMOS 1275 DEB, 12768

Orbit data source: Space-Track

COSMOS 1275 DEB, 12768 is space debris in LEO originally from a launch on Thu, 04 Jun 1981 UTC launched from the Plesetsk Missile And Space Complex (PKMTR). Debris objects in space refer to the collection of defunct objects orbiting the Earth. Examples of debris include non-operational satellites, rocket bodies, and fragments generated from explosions, collisions, or faulty payload assembly.

Loading next visibility...
Identifier
12768, 1981-053DM
Orbit
LEO
Country
Flag of CISCIS
Related business
Manufacturer
Unknown
Mission
Spacecraft
Bus & Motor
Unknown
Mass
Unknown
Launch date (UTC)
1981-06-04 (45 years ago)
Launch vehicle
Unknown
Launch site
Plesetsk Missile And Space Complex (PKMTR)
Object type
Payload
Rocket body
Debris
Shape & HBR
Unknown shape, 0.1 m
Radar Cross Section
Medium (>0.1 m² and <1 m²)

Expand to show TLE details & history
Last TLE update: 2 days ago

TLE from 2 days ago
0 COSMOS 1275 DEB
1 12768U 81053DM  26171.28814705  .00000454  00000-0  36723-3 0  9990
2 12768  82.9300  98.1407 0050650 100.1075  24.9560 13.87561458260021
Epoch: 2026-06-20T06:54Z
TLE epoch observation values (Epoch: 2026-06-20T06:54:55.905Z)
Latitude
54.1783°
Longitude
-103.93885°
Altitude
912.542 km
Speed
7.418 km/s
True Right ascension
17h 53m 11s
True Declination
54° 01' 06"
Sunlit
Object was in daylight at epoch
Visualization orbit readout
Latitude
Unknown
Longitude
Unknown
Altitude
Unknown
Speed
Unknown
Apparent Right ascension
Unknown
Apparent Declination
Unknown
Sunlit
N/A
Visualization observer readout
Local Sidereal Time
23:27:02
Azimuth
Unknown
Elevation
Unknown
Doppler factor
Unknown
Orbital elements
Apogee altitude
971.358 km
Perigee altitude
897.283 km
Semi-major axis
7,312.458 km
Eccentricity
0.00507
Inclination
82.93°
RAAN
98.1407°
Arg. of periapsis
100.1075°
True anomaly
25.2023°
Mean anomaly
24.956°
Eccentric anomaly
25.07901°
Mean motion
3.47095 °/min
Orbital period
103.72 mins
BSTAR
0.00036723
Loading maneuver chart data...
Computing Atmospheric mass density...

Documentation

Showing up to 5 results
|